Regional Weather Roundup
Issued by NWS Bismarck, ND

Home | Current Version | Previous Version | Text Only | Print | Product List | Glossary On
Versions: 1 2 3 4 5 6 7 8 9 10 11 12 13 14 15 16 17 18 19 20 21 22 23 24 25 26 27 28 29 30 31 32 33 34 35 36 37 38 39 40 41 42 43 44 45 46 47 48 49 50
000
ASUS43 KBIS 261902
RWRBIS

NWR BROADCAST TEXT
NATIONAL WEATHER SERVICE BISMARCK ND
200 PM CDT THU MAY 26 2016

NOTE: "FAIR" INDICATES FEW OR NO CLOUDS BELOW 12,000 FEET WITH NO
SIGNIFICANT WEATHER AND/OR OBSTRUCTIONS TO VISIBILITY.


CITY           SKY/WX    TMP DP  RH WIND       PRES   REMARKS
WILLISTON      CLOUDY    65  49  56 NW7       29.80F
MINOT          CLOUDY    66  55  67 VRB5      29.79S
MINOT AFB      DRIZZLE   60  54  81 NE6       29.79S
BISMARCK       PTSUNNY   73  49  42 SW7       29.80S
DICKINSON      LGT RAIN  59  49  69 W20G25    29.83R
GARRISON         N/A     66  48  52 W6        29.79S
HETTINGER ARPT PTSUNNY   65  43  44 W16G23    29.86R
JAMESTOWN      SUNNY     70  52  52 W15G25    29.79S
CARRINGTON     FAIR      66  55  68 W15G22    29.81S
HAZEN          MOCLDY    66  46  48 CALM      29.81S
MANDAN         MOCLDY    68  48  49 W9        29.81S
OAKES            N/A    N/A N/A N/A MISG        N/A
STANLEY        FAIR      63  52  67 W7G14     29.82F
$$

CITY           SKY/WX    TMP DP  RH WIND       PRES   REMARKS
GRAND FORKS    CLOUDY    66  56  70 W12       29.75R
GRAND FORKS AF CLOUDY    67  55  66 W9        29.75S
DEVILS LAKE    CLOUDY    64  55  72 W14       29.78R
FARGO          PTSUNNY   69  55  60 W15       29.79R
CAVALIER       MOCLDY    66  57  72 SW14G21   29.71R
GRAFTON        MOCLDY    68  57  68 W15       29.74R
GWINNER        FAIR      73  54  49 W14G24    29.82S
LANGDON        CLOUDY    63  57  82 NW16      29.74R
$$

CITY           SKY/WX    TMP DP  RH WIND       PRES   REMARKS
ABERDEEN       CLOUDY    74  51  44 SW12      29.84F
MOBRIDGE       SUNNY     73  51  46 SW9       29.81S
BUFFALO          N/A     66  39  37 NW31G39   29.81R
RAPID CITY     PTSUNNY   67  45  45 NE9       29.89F
GLASGOW        CLOUDY    59  51  75 NW10      29.83F
SIDNEY         PTSUNNY   63  52  67 S13       29.80S
WOLF POINT     CLOUDY    62  50  64 NW10      29.82S
GLENDIVE       PTSUNNY   57  50  77 SW5       29.85F THUNDER
MILES CITY     PTSUNNY   64  46  52 W8        29.86S
BAKER          PTSUNNY   65  41  41 NW13      29.86S
$$

CITY           SKY/WX    TMP DP  RH WIND       PRES   REMARKS
BILLINGS       PTSUNNY   66  38  35 NW20G30   29.91F
GREAT FALLS    CLOUDY    55  49  80 SW7       29.95F
$$




USA.gov is the U.S. government's official web portal to all federal, state and local government web resources and services.